TimePDT,TemperatureF,Dew PointF,Humidity,Sea Level PressureIn,VisibilityMPH,Wind Direction,Wind SpeedMPH,Gust SpeedMPH,PrecipitationIn,Events,Conditions,WindDirDegrees,DateUTC
12:53 AM,48.0,46.9,96,30.12,10.0,Calm,Calm,-,N/A,,Clear,0,2013-05-09 07:53:00
1:41 AM,44.6,44.6,100,30.18,1.5,NE,3.5,-,N/A,,Partly Cloudy,40,2013-05-09 08:41:00
1:46 AM,42.8,42.8,100,30.17,0.8,NE,3.5,-,N/A,,Mist,40,2013-05-09 08:46:00
1:53 AM,43.0,43.0,100,30.12,0.5,Calm,Calm,-,N/A,Fog,Fog,0,2013-05-09 08:53:00
2:28 AM,42.8,42.8,100,30.17,1.2,Calm,Calm,-,N/A,,Scattered Clouds,0,2013-05-09 09:28:00
2:36 AM,41.0,41.0,100,30.16,0.8,West,3.5,-,N/A,,Mist,270,2013-05-09 09:36:00
2:49 AM,42.8,42.8,100,30.16,0.2,WSW,3.5,-,N/A,Fog,Fog,250,2013-05-09 09:49:00
2:53 AM,43.0,42.1,97,30.10,0.2,WSW,3.5,-,N/A,Fog,Fog,240,2013-05-09 09:53:00
3:11 AM,42.8,42.8,100,30.15,0.5,SW,3.5,-,N/A,Fog,Fog,230,2013-05-09 10:11:00
3:17 AM,42.8,42.8,100,30.16,1.2,Calm,Calm,-,N/A,,Scattered Clouds,0,2013-05-09 10:17:00
3:26 AM,39.2,39.2,100,30.15,0.8,Calm,Calm,-,N/A,,Mist,0,2013-05-09 10:26:00
3:44 AM,39.2,39.2,100,30.15,0.5,East,4.6,-,N/A,Fog,Fog,80,2013-05-09 10:44:00
3:53 AM,39.9,39.9,100,30.12,0.2,East,4.6,-,N/A,Fog,Fog,80,2013-05-09 10:53:00
4:03 AM,41.0,41.0,100,30.17,0.5,Calm,Calm,-,N/A,Fog,Fog,0,2013-05-09 11:03:00
4:24 AM,39.2,39.2,100,30.17,0.2,WSW,4.6,-,N/A,Fog,Fog,240,2013-05-09 11:24:00
4:31 AM,39.2,39.2,100,30.17,0.2,Calm,Calm,-,N/A,Fog,Fog,0,2013-05-09 11:31:00
4:42 AM,39.2,39.2,100,30.17,0.2,Calm,Calm,-,N/A,Fog,Fog,0,2013-05-09 11:42:00
4:48 AM,39.2,39.2,100,30.17,0.5,Calm,Calm,-,N/A,Fog,Fog,0,2013-05-09 11:48:00
4:53 AM,39.9,39.9,100,30.14,0.5,Calm,Calm,-,N/A,Fog,Fog,0,2013-05-09 11:53:00
5:00 AM,39.2,39.2,100,30.17,0.2,Calm,Calm,-,N/A,Fog,Fog,0,2013-05-09 12:00:00
5:20 AM,39.2,37.4,93,30.18,0.5,Calm,Calm,-,N/A,Fog,Fog,0,2013-05-09 12:20:00
5:32 AM,39.2,39.2,100,30.18,0.2,South,3.5,-,N/A,Fog,Fog,190,2013-05-09 12:32:00
5:41 AM,41.0,41.0,100,30.18,0.5,Calm,Calm,-,N/A,Fog,Fog,0,2013-05-09 12:41:00
5:51 AM,39.2,39.2,100,30.18,0.2,Calm,Calm,-,N/A,Fog,Fog,0,2013-05-09 12:51:00
5:52 AM,39.0,39.0,100,30.16,0.2,Calm,Calm,-,N/A,Fog,Fog,0,2013-05-09 12:52:00
6:00 AM,37.4,37.4,100,30.18,0.2,Calm,Calm,-,N/A,Fog,Fog,0,2013-05-09 13:00:00
6:14 AM,37.4,37.4,100,30.19,0.5,ENE,3.5,-,N/A,Fog,Fog,70,2013-05-09 13:14:00
6:23 AM,37.4,37.4,100,30.19,0.2,Calm,Calm,-,N/A,Fog,Fog,0,2013-05-09 13:23:00
6:53 AM,41.0,41.0,100,30.17,0.2,Calm,Calm,-,N/A,Fog,Fog,0,2013-05-09 13:53:00
7:13 AM,44.6,44.6,100,30.20,0.2,Calm,Calm,-,N/A,Fog,Fog,0,2013-05-09 14:13:00
7:15 AM,44.6,44.6,100,30.20,0.5,Calm,Calm,-,N/A,Fog,Fog,0,2013-05-09 14:15:00
7:23 AM,44.6,44.6,100,30.20,3.0,Calm,Calm,-,N/A,,Partly Cloudy,0,2013-05-09 14:23:00
7:53 AM,48.0,46.9,96,30.17,10.0,Calm,Calm,-,N/A,,Partly Cloudy,0,2013-05-09 14:53:00
8:53 AM,53.1,48.9,86,30.16,10.0,Calm,Calm,-,N/A,,Partly Cloudy,0,2013-05-09 15:53:00
10:53 AM,-9999,-9999,N/A,30.21,10.0,SSW,5.8,-,N/A,,Partly Cloudy,200,2013-05-09 17:53:00
11:53 AM,64.9,48.0,54,30.14,10.0,Variable,4.6,-,N/A,,Partly Cloudy,0,2013-05-09 18:53:00
12:53 PM,69.1,48.9,49,30.12,10.0,South,5.8,-,N/A,,Scattered Clouds,190,2013-05-09 19:53:00
1:53 PM,71.1,48.0,44,30.12,10.0,Variable,4.6,-,N/A,,Scattered Clouds,0,2013-05-09 20:53:00
2:53 PM,73.0,44.1,35,30.11,10.0,WSW,8.1,-,N/A,,Clear,240,2013-05-09 21:53:00
3:53 PM,70.0,43.0,38,30.10,10.0,Calm,Calm,-,N/A,,Partly Cloudy,0,2013-05-09 22:53:00
4:53 PM,73.0,44.1,35,30.09,10.0,Calm,Calm,-,N/A,,Clear,0,2013-05-09 23:53:00
5:53 PM,73.9,45.0,35,30.08,10.0,Calm,Calm,-,N/A,,Clear,0,2013-05-10 00:53:00
6:53 PM,75.0,41.0,29,30.08,10.0,North,5.8,-,N/A,,Clear,360,2013-05-10 01:53:00
7:53 PM,68.0,45.0,43,30.09,10.0,NW,6.9,-,N/A,,Clear,310,2013-05-10 02:53:00
8:53 PM,63.0,46.0,54,30.11,10.0,North,9.2,-,N/A,,Clear,350,2013-05-10 03:53:00
9:53 PM,57.0,46.0,67,30.14,10.0,Calm,Calm,-,N/A,,Clear,0,2013-05-10 04:53:00
10:53 PM,57.9,43.0,58,30.21,10.0,North,5.8,-,N/A,,Clear,10,2013-05-10 05:53:00
11:53 PM,53.1,44.1,71,30.16,10.0,West,3.5,-,N/A,,Clear,280,2013-05-10 06:53:00